SCOUT A R/B, 1865

Orbit data source: Space-Track

SCOUT A R/B, 1865 is space debris in LEO originally from a launch on Wed, 22 Dec 1965 UTC launched from the Air Force Western Test Range (AFWTR). Debris objects in space refer to the collection of defunct objects orbiting the Earth. Examples of debris include non-operational satellites, rocket bodies, and fragments generated from explosions, collisions, or faulty payload assembly.

Loading next visibility...
Identifier
1865, 1965-109B
Orbit
LEO
Last TLE update
17 hours ago
Origin
Manufacturer
ABL
Mission
Spacecraft
Bus & Motor
ALTAIR, Unknown motor
Mass
33 kg wet, 33 kg dry
Launch date (UTC)
1965-12-22 (59 years ago)
Launch vehicle
Unknown
Launch site
Air Force Western Test Range (AFWTR)
Object type
Payload
Rocket body
Debris
Shape & HBR
Cyl, 1.5 m
Radar Cross Section
0.687 m², Medium (>0.1 m² and < 1m²)

Expand to show TLE details & history

TLE from 17 hours ago
0 SCOUT A R/B
1 01865U 65109B   25114.90895355  .00000270  00000-0  24942-3 0  9991
2 01865  89.0603 290.3720 0112086 168.1972 192.1862 13.76718022976078
Epoch: 2025-04-24T21:48Z
Definitive object data (Epoch: 2025-04-24T21:48:53.586Z)
Latitude
-0.00005°
Longitude
109.9751°
Altitude
1,059.166 km
Speed
7.282 km/s
True Right ascension
19h 21m 29s
True Declination
0° 00' 00"
Sunlit
Object was in daylight at TLE epoch
Visualization TLE readout
Latitude
-29.23998°
Longitude
109.38022°
Altitude
1,066.109 km
Speed
7.278 km/s
Apparent Right ascension
16h 04m 15s
Apparent Declination
-58° 44' 49"
Sunlit
Object is in daylight
Visualization observer readout
Local Sidereal Time
22:21:55
Azimuth
219.386° SW
Elevation
-35.393°
Doppler factor
1
Orbital elements
Apogee altitude
1,054.954 km
Perigee altitude
890.172 km
Semi-major axis
7,350.7 km
Eccentricity
0.0112086
Inclination
89.0603°
RAAN
290.372°
Arg. of periapsis
168.1972°
True anomaly
191.91874°
Mean anomaly
192.1862°
Eccentric anomaly
192.05211°
Mean motion
3.4439 °/min
BSTAR
0.00024942
Orbital period
104.53 mins
Loading maneuver chart data...
Loading SW <> Apogee altitude chart data...
Loading historical data...
Loading historical data...
Loading historical data...
Loading historical data...
Loading historical data...
Loading historical data...
Loading historical data...

SCOUT A R/B Visibility forecast

Observer location: undefined°, undefined°

Span
Click to sort rows by Start time (UTC) header in descending order
Start Az.
Max El. time (UTC)
Max El. Az.
Max El.
End time (UTC)
End Az.
8 mins2025-04-25 22:50:51.464Z33.456° NE2025-04-25 22:54:51.464Z83.849° E22.273°2025-04-25 22:58:51.464Z131.287° SE
8 mins2025-04-26 00:35:51.464Z337.465° NNW2025-04-26 00:39:51.464Z265.227° W33.495°2025-04-26 00:43:51.464Z212.895° SW
6 mins2025-04-26 10:36:51.464Z101.315° ESE2025-04-26 10:38:51.464Z79.55° E17.786°2025-04-26 10:42:51.464Z37.164° NE
11 mins2025-04-26 12:17:51.464Z190.369° SSW2025-04-26 12:22:51.464Z250.993° W42.206°2025-04-26 12:28:51.464Z352.155° N
|